Wind_Speed
3 3 3 3 3 3 3 2 2 2 2 3 3 2 2 3 3 4 4 4 4 4 4 4 4 4 4 4 4 4 4 3 4 3 3 4 4 4 4 4 4 4 4
3 3 4 4 4 4 3 3 4 4 4 4 4 4 4 4 4 5 5 5 6 6 6 6 5 5 4 5 4 4 4 4 5 5 4 5 5 5 5 5 5 6 5
4 4 4 5 5 5 5 5 5 5 5 5 4 5 5 5 5 6 5 6 6 6 7 7 6 5 4 4 4 5 5 5 5 5 5 6 6 7 7 6 6 7 6
5 5 5 5 5 6 6 6 6 6 6 6 5 5 5 5 5 5 5 5 5 5 5 6 6 5 5 4 5 5 6 6 6 6 6 7 7 7 7 7 7 7 7
6 6 6 6 6 6 7 7 7 7 6 6 6 6 6 6 6 6 6 6 5 5 4 5 5 5 5 5 5 6 6 6 6 7 7 8 8 8 8 8 8 8 7
7 7 7 7 7 7 8 8 7 8 8 7 7 7 7 7 6 6 7 6 6 6 5 5 6 6 6 5 5 6 6 7 7 8 8 8 8 9 9 9 8 8 8
8 8 8 8 8 8 9 10 9 9 8 7 8 7 7 7 7 7 7 7 6 6 6 6 7 7 7 7 6 6 6 6 7 7 8 8 8 9 9 9 9 9 9
9 9 9 9 9 9 9 9 9 9 8 8 8 7 7 7 7 6 7 7 7 7 7 7 7 7 7 7 7 6 7 8 7 7 7 7 7 8 8 9 9 9 9
9 9 10 10 9 9 9 9 8 8 7 8 7 8 7 7 7 7 8 8 8 8 7 7 7 7 7 7 7 7 7 8 8 8 7 8 8 8 9 9 9 8 8
10 10 10 10 10 9 9 9 8 8 8 8 8 8 8 8 7 7 7 7 8 7 7 7 7 6 6 7 7 8 8 8 8 7 7 7 8 8 9 9 9 8 8
10 10 11 11 10 9 10 10 9 9 9 8 8 7 7 7 7 7 7 7 7 7 7 7 7 7 7 7 7 7 7 7 7 6 6 7 8 8 8 8 8 8 7
11 10 10 10 10 10 10 10 10 9 9 9 8 7 7 7 7 7 7 7 7 7 6 6 7 7 7 7 7 7 7 7 7 7 7 7 8 7 7 8 8 8 8
11 10 10 10 11 10 10 10 10 10 10 9 9 8 8 8 8 7 7 7 7 7 6 7 7 7 7 7 8 7 7 7 7 7 7 8 8 8 8 7 8 8 8
11 11 11 11 10 10 10 10 11 11 10 10 10 10 10 9 8 8 8 8 8 7 7 7 7 7 7 7 8 7 8 8 8 8 8 8 8 8 8 8 8 8 9
11 11 11 10 10 10 10 11 11 11 10 10 10 10 10 9 8 8 8 7 7 7 7 7 7 7 7 8 7 8 8 8 8 8 8 8 8 8 8 8 9 9 10
10 11 11 11 11 11 10 10 10 10 10 10 10 9 9 9 8 7 7 7 7 7 7 7 7 7 7 8 8 8 8 8 8 8 8 8 8 8 8 9 9 9 9
11 11 11 10 10 10 10 11 11 10 10 10 10 10 9 8 8 7 8 8 7 7 7 8 8 8 8 8 9 9 9 9 9 8 8 9 8 8 9 9 9 10 10
11 11 11 11 11 11 11 11 10 10 10 10 10 10 10 9 8 8 8 8 7 8 8 8 8 8 8 9 10 10 10 9 9 9 9 9 9 9 9 9 10 10 10
12 12 12 12 12 11 11 11 11 10 10 11 10 10 10 9 9 8 8 8 8 8 8 8 8 8 9 9 10 10 10 9 9 9 9 10 10 10 10 9 10 10 10
13 13 13 13 12 12 12 11 11 10 9 10 10 10 10 9 9 9 9 9 9 8 8 9 9 9 9 9 9 10 9 9 9 10 10 10 10 11 10 10 11 10 10
13 13 13 13 12 12 12 11 10 10 10 10 10 11 11 10 9 10 10 10 10 10 9 10 10 9 9 9 10 10 10 10 10 10 10 11 11 12 12 12 11 11 11
12 12 12 12 12 12 12 11 11 10 10 11 11 10 10 10 10 10 10 10 10 10 11 10 10 10 10 10 10 11 11 11 11 11 11 12 12 12 12 12 12 12 12
11 11 11 11 12 11 11 11 11 11 11 11 11 11 10 10 10 11 11 10 10 10 11 11 11 11 11 11 11 11 11 12 12 12 12 12 12 12 12 12 13 13 12
11 11 11 11 11 11 11 11 11 11 11 11 11 11 11 11 11 11 11 10 10 11 11 11 11 11 11 11 11 11 11 12 12 12 12 12 12 12 13 13 13 13 13
11 11 11 11 11 11 11 11 11 11 11 11 11 12 11 11 11 11 12 11 11 11 12 12 12 12 12 11 12 12 12 12 12 12 12 12 12 12 13 13 13 13 13
11 12 12 12 12 12 12 12 12 12 12 12 12 12 12 12 12 12 12 12 12 13 13 13 12 12 12 12 12 12 12 12 12 13 13 13 13 13 13 13 13 13 13
Wind_Direction
318 327 326 328 344 340 335 333 328 318 310 308 308 308 295 297 296 294 291 287 287 281 266 251 253 268 263 258 265 264 270 269 274 272 266 264 270 275 278 281 284 282 288
306 312 314 312 320 326 324 311 313 309 304 295 295 302 293 287 287 288 284 279 282 281 265 252 255 274 265 268 270 268 265 265 272 272 270 269 270 272 274 274 277 280 284
296 302 311 312 314 315 313 306 306 304 299 293 290 299 294 289 288 286 288 289 286 282 260 250 262 272 270 270 270 273 269 268 267 267 266 267 270 272 272 274 275 275 278
289 295 304 310 309 309 304 305 306 301 299 294 290 294 292 292 290 289 290 291 295 293 273 259 261 268 269 267 269 267 268 270 268 267 265 264 268 270 269 271 274 277 278
289 291 294 298 301 303 304 303 305 307 303 299 293 292 292 291 289 286 288 290 292 294 282 267 265 271 272 269 268 267 267 268 269 269 268 266 265 266 269 270 271 274 280
291 292 291 293 296 296 298 303 307 311 307 302 297 293 291 290 286 283 286 290 288 283 280 275 274 277 274 275 276 275 270 272 273 269 269 269 269 270 271 271 273 277 279
295 297 293 292 292 293 294 299 302 307 309 308 305 303 297 296 288 282 283 287 285 282 283 280 277 277 274 276 276 281 282 284 281 274 273 274 276 276 276 276 276 276 281
294 296 296 293 293 295 295 298 301 306 310 308 307 309 308 301 291 289 288 283 279 277 276 277 277 277 276 278 279 281 281 282 286 285 279 280 282 281 280 279 279 280 280
291 292 293 291 290 292 297 300 298 302 304 303 303 304 305 304 297 293 292 286 281 277 276 278 277 276 281 281 283 285 288 288 289 292 288 283 285 287 285 284 283 283 282
288 290 290 289 289 291 293 295 295 297 299 301 303 301 298 296 295 293 293 290 286 282 284 284 283 280 287 285 283 286 293 292 292 297 296 289 288 289 288 288 285 282 283
287 288 288 290 290 290 293 294 295 292 294 297 299 297 294 288 288 290 290 291 290 288 286 289 289 285 288 289 286 286 291 289 288 297 300 295 289 288 288 289 288 284 282
286 286 287 288 288 287 289 291 293 293 291 292 294 295 295 293 289 289 287 290 288 286 284 288 290 289 286 289 288 287 287 288 287 289 293 294 292 290 287 290 290 286 281
283 283 284 286 286 286 288 288 290 291 289 289 293 292 292 293 292 289 289 291 292 293 294 294 292 293 289 285 286 280 282 286 289 288 288 291 291 291 289 291 295 293 289
282 281 282 283 285 288 289 288 289 288 286 286 288 290 291 292 291 290 292 295 292 293 296 296 295 294 292 290 289 284 283 286 289 288 285 285 284 287 289 287 290 291 293
282 283 286 288 288 290 290 290 286 284 282 285 287 290 294 296 295 298 297 295 293 292 289 287 291 293 293 290 291 292 292 293 294 294 287 284 285 285 287 289 288 288 287
286 287 289 288 287 288 289 290 290 285 285 288 291 292 293 292 293 294 298 298 295 293 291 293 293 291 291 286 285 290 294 294 294 294 292 287 283 283 285 290 292 290 289
286 288 288 288 287 288 289 288 288 285 283 286 287 291 290 289 291 291 292 294 294 293 293 293 293 291 289 289 287 288 291 293 292 289 286 284 288 287 287 289 291 292 290
285 286 288 287 286 286 288 290 286 284 282 284 283 286 289 290 292 294 295 292 288 286 287 288 292 295 293 292 291 292 295 293 290 285 282 280 282 285 286 287 287 290 291
283 283 286 286 285 283 283 286 286 285 283 279 280 285 287 288 289 292 294 295 291 286 289 290 293 293 293 294 294 294 294 291 288 285 282 281 281 284 285 285 285 288 291
281 282 282 282 283 282 281 281 281 284 283 283 281 282 286 285 285 288 289 290 292 288 290 290 290 291 290 292 293 295 294 291 289 287 285 282 283 283 282 284 284 285 288
282 283 282 280 280 280 280 277 278 280 281 282 282 280 281 281 281 284 288 292 292 290 290 291 289 290 290 291 293 296 294 292 289 288 286 284 283 282 281 283 283 283 282
287 287 284 280 279 281 281 276 277 278 279 281 281 283 280 280 280 281 288 292 293 291 287 288 289 289 288 290 292 294 295 292 289 286 285 285 284 283 283 283 283 284 282
289 291 288 285 284 282 281 278 279 279 280 279 281 282 281 280 280 282 283 286 287 288 287 287 287 287 286 287 290 291 293 292 290 288 286 284 283 283 284 286 285 286 285
287 289 288 284 283 282 281 281 281 282 281 278 279 281 278 278 279 282 284 284 282 284 285 285 284 284 285 286 289 289 290 291 289 286 286 286 285 285 285 284 283 283 283
284 285 285 285 283 283 285 286 286 284 284 283 281 283 279 278 279 281 283 281 282 282 281 282 281 282 283 285 287 289 289 289 289 286 287 287 287 287 287 284 281 280 280
284 281 281 282 282 283 284 286 289 288 288 287 286 286 282 280 280 281 283 283 282 281 280 279 279 279 279 283 285 289 291 292 292 291 290 289 288 287 287 287 283 280 280
Height
5883 5882 5881 5881 5880 5880 5879 5879 5879 5878 5878 5878 5878 5877 5877 5877 5877 5876 5876 5876 5875 5875 5875 5875 5875 5875 5875 5875 5875 5875 5875 5875 5876 5876 5876 5877 5877 5877 5877 5877 5877 5877 5876
5883 5882 5882 5881 5881 5880 5879 5879 5878 5878 5878 5878 5877 5877 5877 5876 5876 5876 5875 5875 5874 5873 5872 5873 5873 5874 5874 5874 5874 5875 5875 5875 5875 5875 5876 5876 5876 5877 5877 5877 5877 5876 5876
5882 5882 5882 5881 5880 5880 5879 5879 5878 5878 5877 5877 5877 5876 5876 5875 5875 5875 5874 5874 5872 5870 5868 5870 5872 5873 5873 5873 5874 5874 5874 5874 5875 5875 5875 5875 5875 5876 5876 5876 5876 5876 5876
5882 5882 5881 5881 5880 5879 5879 5879 5878 5877 5877 5876 5876 5876 5875 5875 5874 5874 5874 5873 5871 5868 5866 5868 5871 5872 5872 5872 5873 5873 5873 5873 5874 5874 5874 5874 5874 5875 5875 5875 5875 5875 5875
5881 5881 5881 5880 5880 5879 5879 5878 5877 5877 5876 5875 5875 5875 5874 5874 5874 5873 5872 5872 5871 5869 5868 5869 5870 5871 5871 5872 5872 5872 5872 5872 5873 5873 5873 5873 5873 5874 5874 5874 5874 5874 5874
5881 5880 5880 5880 5879 5878 5878 5877 5876 5876 5875 5874 5874 5874 5873 5873 5873 5872 5871 5871 5871 5870 5870 5870 5870 5870 5871 5871 5871 5871 5871 5871 5871 5871 5871 5871 5872 5872 5872 5873 5873 5873 5873
5880 5879 5879 5878 5878 5877 5877 5876 5875 5875 5874 5873 5873 5873 5872 5872 5871 5871 5871 5870 5870 5870 5869 5869 5869 5870 5870 5870 5870 5870 5870 5870 5870 5870 5870 5870 5870 5870 5871 5871 5871 5871 5871
5879 5878 5878 5877 5877 5876 5876 5875 5874 5874 5873 5872 5872 5871 5871 5870 5870 5870 5869 5869 5869 5868 5868 5868 5868 5868 5869 5869 5869 5869 5869 5869 5869 5869 5869 5869 5869 5869 5869 5870 5870 5870 5870
5877 5877 5876 5876 5876 5875 5875 5874 5873 5873 5872 5872 5871 5871 5870 5869 5869 5868 5868 5867 5867 5867 5867 5867 5867 5867 5867 5867 5868 5868 5868 5868 5868 5868 5868 5868 5868 5868 5868 5868 5868 5868 5868
5876 5875 5875 5875 5874 5874 5873 5873 5872 5872 5871 5870 5870 5869 5868 5868 5867 5867 5866 5866 5866 5865 5866 5866 5866 5866 5866 5866 5866 5866 5867 5867 5867 5867 5867 5867 5866 5866 5866 5866 5867 5867 5867
5874 5874 5873 5873 5872 5872 5872 5871 5871 5870 5870 5869 5868 5868 5867 5866 5866 5865 5865 5865 5865 5864 5864 5864 5864 5865 5865 5865 5865 5865 5865 5865 5865 5865 5865 5865 5865 5865 5865 5865 5865 5865 5865
5872 5872 5871 5871 5871 5870 5870 5870 5869 5869 5868 5868 5867 5866 5865 5865 5864 5864 5864 5863 5863 5863 5863 5863 5864 5863 5864 5864 5864 5864 5864 5864 5864 5864 5864 5864 5864 5864 5864 5864 5864 5863 5864
5870 5870 5869 5869 5869 5868 5868 5868 5868 5867 5867 5866 5865 5864 5864 5864 5863 5863 5862 5862 5862 5862 5862 5862 5862 5862 5862 5862 5862 5862 5863 5862 5863 5863 5862 5862 5862 5862 5862 5862 5862 5862 5862
5868 5868 5867 5867 5867 5866 5866 5866 5866 5865 5865 5864 5864 5863 5862 5862 5862 5861 5861 5861 5861 5861 5861 5861 5861 5861 5861 5861 5861 5861 5861 5861 5861 5861 5861 5861 5861 5861 5861 5861 5860 5860 5860
5866 5866 5865 5865 5865 5864 5864 5864 5863 5863 5863 5862 5862 5861 5861 5861 5860 5860 5860 5860 5860 5860 5860 5860 5860 5860 5860 5860 5860 5860 5860 5859 5859 5859 5859 5859 5859 5859 5859 5859 5859 5858 5858
5864 5864 5863 5863 5862 5862 5862 5862 5861 5861 5860 5860 5860 5859 5859 5859 5859 5859 5859 5859 5859 5859 5859 5859 5858 5858 5858 5858 5858 5858 5858 5858 5858 5857 5857 5857 5857 5857 5857 5857 5857 5856 5856
5862 5862 5861 5861 5860 5860 5860 5860 5859 5859 5859 5858 5858 5858 5858 5858 5858 5857 5857 5857 5857 5857 5857 5857 5857 5857 5857 5857 5857 5857 5856 5856 5856 5856 5855 5855 5855 5855 5855 5855 5855 5855 5854
5860 5859 5859 5859 5858 5858 5858 5857 5857 5857 5857 5856 5856 5856 5856 5856 5856 5856 5856 5856 5856 5856 5856 5855 5855 5855 5855 5855 5855 5855 5854 5854 5854 5854 5853 5853 5854 5853 5853 5853 5853 5853 5852
5857 5857 5857 5856 5856 5856 5856 5855 5855 5855 5854 5854 5854 5854 5854 5854 5854 5854 5854 5854 5854 5854 5854 5854 5854 5853 5853 5853 5853 5853 5852 5852 5852 5851 5851 5851 5851 5851 5851 5851 5851 5851 5850
5855 5855 5854 5854 5854 5853 5853 5853 5853 5852 5852 5852 5852 5852 5852 5852 5852 5852 5852 5852 5852 5852 5852 5852 5852 5852 5852 5851 5851 5851 5850 5850 5849 5849 5849 5849 5849 5849 5849 5849 5848 5848 5848
5852 5852 5852 5851 5851 5851 5851 5851 5850 5850 5850 5850 5850 5850 5850 5850 5850 5850 5850 5850 5850 5850 5850 5850 5850 5850 5849 5849 5849 5849 5848 5847 5847 5847 5847 5846 5846 5846 5846 5846 5846 5845 5845
5849 5849 5849 5848 5848 5848 5848 5848 5848 5848 5847 5847 5847 5847 5847 5847 5847 5847 5848 5848 5848 5848 5848 5847 5847 5847 5847 5847 5847 5846 5846 5846 5845 5845 5844 5844 5844 5844 5843 5843 5843 5843 5843
5847 5846 5846 5846 5845 5845 5845 5845 5845 5845 5845 5845 5844 5845 5844 5845 5845 5845 5845 5845 5845 5845 5845 5845 5845 5844 5844 5844 5844 5844 5844 5843 5843 5842 5841 5841 5841 5841 5840 5840 5840 5839 5839
5844 5844 5843 5843 5843 5843 5842 5842 5842 5842 5842 5842 5842 5841 5842 5842 5842 5842 5842 5842 5842 5842 5842 5842 5842 5842 5842 5842 5841 5841 5841 5840 5840 5840 5839 5838 5838 5838 5837 5837 5836 5836 5836
5842 5841 5841 5841 5840 5840 5840 5839 5839 5839 5839 5838 5838 5838 5838 5838 5839 5839 5839 5839 5839 5839 5839 5839 5839 5839 5839 5838 5838 5838 5837 5837 5837 5836 5836 5836 5835 5835 5834 5833 5833 5833 5833
5839 5839 5838 5838 5838 5838 5837 5837 5836 5836 5836 5835 5835 5835 5835 5835 5835 5836 5836 5836 5836 5836 5836 5836 5835 5835 5835 5835 5835 5835 5834 5834 5833 5833 5833 5832 5832 5832 5831 5830 5830 5829 5829